Location: Newark
(7.0858°N, 171.3717°E)
Time: 05:02:48
(UTC+00:00)

Courier 1B Rocket - Pass Details

Date: 28 November 2020
Orbit: 920 x 1202 km, 28.2° (Epoch: 20 January)

Event Time Altitude Azimuth Distance (km) Brightness Sun altitude
Rises 22:55:49 0° 313° (NW) 3,970 7.8 54.3°
Reaches altitude 10° 22:59:13 10° 325° (NW) 2,964 7.3 54.8°
Maximum altitude 23:05:05 26° 19° (NNE) 1,952 6.7 55.6°
Drops below altitude 10° 23:10:38 10° 74° (ENE) 2,792 7.7 56.4°
Sets 23:13:43 0° 87° (E) 3,697 8.2 56.8°
